{"data":{"norad_id":64461,"epoch":"2026-05-25T03:08:10.385664Z","epoch_age_seconds":66846,"freshness":"FRESH","line1":"1 64461U 25130Z   26145.13067576  .00019156  00000+0  65711-3 0  9999","line2":"2 64461  53.1588  93.6726 0001629  74.7419 285.3761 15.30206291 52408","mean_motion":15.30206291,"eccentricity":0.0001629,"inclination_deg":53.1588,"raan_deg":93.6726,"arg_perigee_deg":74.7419,"mean_anomaly_deg":285.3761,"bstar":0.00065711,"rev_number":5240,"period_min":94.104958819569,"perigee_km":474.0798776994,"apogee_km":476.31269368388,"semimajor_km":6853.3332856916,"source":"CELESTRAK","updated_at":"2026-05-25T13:38:20.453737Z"}}